Location: Domachevo
(51.7500°N, 23.6000°E)
Time: 08:26:25
(UTC+03:00)

GENESIS II - Visible Passes

Search period start: 23 September 2017 00:00
Search period end: 03 October 2017 00:00
Orbit: 503 x 531 km, 64.5° (Epoch: 22 September)

Date Brightness Start Highest point End Pass type
(mag) Time Alt. Az. Time Alt. Az. Time Alt. Az.
23 Sep 6.3 03:43:44 27° NE 03:43:44 27° NE 03:45:40 10° NE visible
23 Sep 5.5 05:18:45 25° WNW 05:19:43 28° NNW 05:23:13 10° NNE visible
24 Sep 6.7 03:29:00 21° NE 03:29:00 21° NE 03:30:24 10° NE visible
24 Sep 5.6 05:04:01 27° NW 05:04:28 27° NNW 05:07:56 10° NNE visible
24 Sep 6.6 06:41:17 10° NW 06:43:24 14° N 06:45:31 10° NNE visible
25 Sep 7.1 03:14:14 16° NE 03:14:14 16° NE 03:15:08 10° NE visible
25 Sep 5.7 04:49:15 27° NNW 04:49:15 27° NNW 04:52:40 10° NNE visible
25 Sep 6.6 06:26:02 10° NW 06:28:09 14° N 06:30:16 10° NNE visible
26 Sep 7.4 02:59:27 13° NE 02:59:27 13° NE 02:59:51 10° NE visible
26 Sep 5.9 04:34:27 26° NNW 04:34:27 26° NNW 04:37:22 10° NNE visible
26 Sep 6.7 06:10:48 10° NW 06:12:54 14° N 06:14:59 10° NNE visible
27 Sep 6.2 04:19:39 23° N 04:19:39 23° N 04:22:05 10° NNE visible
27 Sep 6.7 05:55:33 10° NW 05:57:39 14° N 05:59:43 10° NNE visible
28 Sep 6.5 04:04:50 21° N 04:04:50 21° N 04:06:48 10° NNE visible
28 Sep 6.7 05:40:19 10° NW 05:42:24 14° N 05:44:27 10° NNE visible
29 Sep 6.8 03:50:01 18° N 03:50:01 18° N 03:51:31 10° NNE visible
29 Sep 6.8 05:25:04 10° NW 05:27:07 14° N 05:29:11 10° NNE visible
30 Sep 7.1 03:35:12 15° NNE 03:35:12 15° NNE 03:36:13 10° NNE visible
30 Sep 6.7 05:10:13 11° NNW 05:11:52 14° N 05:13:55 10° NNE visible
30 Sep 6.6 06:48:22 10° NNW 06:51:03 17° NNE 06:53:43 10° ENE visible
01 Oct 7.4 03:20:23 13° NNE 03:20:23 13° NNE 03:20:56 10° NNE visible
01 Oct 6.8 04:55:23 12° NNW 04:56:37 13° N 04:58:39 10° NNE visible
01 Oct 6.7 06:33:05 10° NNW 06:35:47 17° NNE 06:38:28 10° ENE visible
02 Oct 7.6 03:05:34 10° NNE 03:05:34 10° NNE 03:05:38 10° NNE visible
02 Oct 6.8 04:40:35 13° NNW 04:41:21 13° N 04:43:22 10° NNE visible
02 Oct 6.7 06:17:48 10° NNW 06:20:31 17° NNE 06:23:13 10° ENE visible
